Home   Weather   USA   Laughlin   Past weeks
Flag for USA

Past Weather in Laughlin, Nevada, USA — Yesterday and Last 2 Weeks

Currently: 70 °F. Sunny. (Weather station: Laughlin/Bullhead International Airport, USA). See more current weather

Past Weather in Laughlin — Graph

°F

Laughlin Temperature Yesterday

Maximum temperature yesterday: 63 °F (at 2:50 pm)
Minimum temperature yesterday: 50 °F (at 4:35 am)
Average temperature yesterday: 55 °F

High & Low Weather Summary for the Past Weeks

 TemperatureHumidityPressure
High81 °F (Feb 24, 3:48 pm)100% (Feb 12, 9:55 pm)30.41 "Hg (Feb 12, 9:55 pm)
Low39 °F (Feb 19, 6:10 am)5% (Feb 24, 7:55 pm)29.50 "Hg (Feb 13, 2:50 pm)
Average57 °F38%30.02 "Hg
* Reported Feb 11 12:48 pm — Feb 26 12:50 pm, Laughlin. Weather by CustomWeather, © 2021

Note: Actual official high and low records may vary slightly from our data, if they occured in-between our weather recording intervals... More about our weather records

Laughlin Weather History for the Previous 24 Hours

Scroll right to see more
 ConditionsComfort  
Time TempWeatherWind HumidityBarometerVisibility
12:50 pm
Fri, Feb 26
66 °FSunny.5 mph9%29.96 "Hg10 mi
11:48 am63 °FSunny.7 mph12%30.02 "Hg10 mi
10:50 am61 °FSunny.6 mph15%30.06 "Hg10 mi
9:49 am57 °FSunny.14 mph17%30.09 "Hg20 mi
8:50 am52 °FSunny.6 mph20%30.11 "Hg20 mi
7:50 am43 °FSunny.No wind31%30.10 "Hg20 mi
6:48 am39 °FSunny.5 mph39%30.09 "Hg10 mi
6:35 am39 °FSunny.No wind36%30.08 "Hg10 mi
6:15 am41 °FSunny.6 mph36%30.08 "Hg10 mi
5:55 am41 °FClear.No wind36%30.07 "Hg10 mi
5:35 am45 °FClear.No wind37%30.07 "Hg10 mi
5:15 am46 °FClear.No wind32%30.07 "Hg10 mi
4:55 am46 °FClear.6 mph32%30.06 "Hg10 mi
4:35 am46 °FClear.7 mph32%30.06 "Hg10 mi
4:15 am48 °FClear.6 mph32%30.06 "Hg10 mi
3:55 am46 °FClear.No wind37%30.06 "Hg10 mi
3:35 am48 °FClear.6 mph27%30.06 "Hg10 mi
3:15 am52 °FClear.9 mph24%30.07 "Hg10 mi
2:55 am50 °FClear.10 mph25%30.07 "Hg10 mi
2:35 am50 °FClear.12 mph30%30.07 "Hg10 mi
2:15 am48 °FClear.8 mph43%30.07 "Hg10 mi
1:55 am48 °FClear.9 mph32%30.08 "Hg10 mi
1:35 am50 °FClear.5 mph24%30.08 "Hg10 mi
1:15 am50 °FClear.8 mph24%30.08 "Hg10 mi
12:55 am50 °FClear.3 mph24%30.08 "Hg10 mi
12:35 am50 °FClear.No wind24%30.07 "Hg10 mi
12:15 am52 °FClear.8 mph44%30.07 "Hg10 mi
11:55 pm
Thu, Feb 25
52 °FClear.7 mph17%30.08 "Hg10 mi
11:35 pm52 °FClear.5 mph47%30.08 "Hg10 mi
11:15 pm52 °FClear.No wind41%30.09 "Hg10 mi
10:55 pm54 °FClear.6 mph18%30.09 "Hg10 mi
10:35 pm54 °FClear.6 mph35%30.09 "Hg10 mi
9:55 pm55 °FClear.12 mph21%30.09 "Hg10 mi
9:35 pm55 °FClear.7 mph28%30.10 "Hg10 mi
9:15 pm55 °FClear.12 mph31%30.10 "Hg10 mi
8:55 pm54 °FClear.9 mph30%30.09 "Hg10 mi
8:35 pm57 °FClear.13 mph25%30.09 "Hg10 mi
8:15 pm57 °FClear.12 mph25%30.09 "Hg10 mi
7:55 pm57 °FClear.12 mph25%30.09 "Hg10 mi
7:35 pm57 °FClear.12 mph25%30.09 "Hg10 mi
7:15 pm57 °FClear.10 mph29%30.08 "Hg10 mi
6:55 pm59 °FClear.10 mph29%30.08 "Hg10 mi
6:35 pm59 °FClear.14 mph31%30.08 "Hg10 mi
6:15 pm59 °FClear.16 mph34%30.08 "Hg10 mi
5:55 pm59 °FClear.17 mph36%30.08 "Hg10 mi
5:35 pm61 °FClear.21 mph29%30.07 "Hg10 mi
5:15 pm61 °FSunny.20 mph29%30.07 "Hg10 mi
4:55 pm61 °FSunny.22 mph29%30.06 "Hg10 mi
3:50 pm63 °FSunny.23 mph12%30.07 "Hg20 mi
2:50 pm63 °FSunny.25 mph13%30.09 "Hg10 mi
Weather by CustomWeather, © 2021

See weather overview